Weather History for KPOB - August, 2013

Change the Weather History Date:

Tuesday, August 6, 2013

  Actual Average Record
Temperature  
Mean Temperature 76 °F -  
Max Temperature 82 °F 89 °F 99 °F (2007)
Min Temperature 70 °F 72 °F 60 °F (2004)
Cooling Degree Days 11    
Growing Degree Days 26 (Base 50)    
Moisture  
Dew Point 65 °F    
Average Humidity 69    
Maximum Humidity 86    
Minimum Humidity 54    
Precipitation  
Precipitation 0.00 in - - ()
Sea Level Pressure  
Sea Level Pressure 30.05 in    
Wind  
Wind Speed 4 mph (SSW)    
Max Wind Speed 13 mph    
Max Gust Speed -    
Visibility 10 miles    
Events Rain    
Averages and records for this station are not official NWS values.
T = Trace of Precipitation, MM = Missing Value Source: NWS Daily Summary

Daily Weather History Graph

Daily Weather History Graph

Search for Another Location

Airport or City:

Trip Planner

Search our weather history database for the weather conditions in past years. The results will help you decide how hot, cold, wet, or windy it might be!

Date:

Astronomy

Aug. 06, 2013 Rise Set
Actual Time 6:29 AM EDT 8:14 PM EDT
Civil Twilight 6:01 AM EDT 8:41 PM EDT
Nautical Twilight 5:28 AM EDT 9:14 PM EDT
Astronomical Twilight 4:53 AM EDT 9:49 PM EDT
Moon 6:16 AM EDT (8/6) 7:51 PM EDT (8/6)
Length of Visible Light 14h 40m
Length of Day
13h 45m
Waning Crescent, 0% of the Moon is Illuminated
Aug 6
Waning Crescent
Aug 6
New
Aug 14
First Quarter
Aug 20
Full
Aug 28
Last Quarter

Hourly Weather History & Observations

Time (EDT) Temp. Heat Index Dew Point Humidity Pressure Visibility Wind Dir Wind Speed Gust Speed Precip Events Conditions
12:58 AM 74.8 °F - 63.0 °F 66% 30.04 in 10.0 mi SSW 8.1 mph - N/A   Scattered Clouds
1:58 AM 74.1 °F - 63.0 °F 68% 30.04 in 10.0 mi South 3.5 mph - N/A   Clear
2:58 AM 73.0 °F - 63.3 °F 71% 30.01 in 10.0 mi SSE 4.6 mph - N/A   Partly Cloudy
3:58 AM 72.9 °F - 63.9 °F 73% 30.01 in 10.0 mi Calm Calm - N/A   Mostly Cloudy
4:49 AM 73.4 °F - 62.6 °F 69% 30.01 in 10.0 mi Calm Calm - N/A Rain Light Rain
4:57 AM 71.6 °F - 64.4 °F 78% 30.01 in 10.0 mi East 1.2 mph - N/A   Mostly Cloudy
4:58 AM 71.6 °F - 64.4 °F 78% 30.01 in 10.0 mi ESE 1.2 mph - 0.00 in   Mostly Cloudy
5:58 AM 72.0 °F - 64.0 °F 76% 30.04 in 10.0 mi SW 2.3 mph - 0.00 in   Mostly Cloudy
5:59 AM 71.6 °F - 64.4 °F 78% 30.03 in 10.0 mi WSW 1.2 mph - N/A   Light Drizzle
6:15 AM 71.6 °F - 64.4 °F 78% 30.04 in 10.0 mi North 1.2 mph - N/A   Mostly Cloudy
6:58 AM 70.7 °F - 66.4 °F 86% 30.04 in 10.0 mi ENE 3.5 mph - 0.00 in   Scattered Clouds
7:58 AM 70.7 °F - 66.0 °F 85% 30.06 in 10.0 mi ENE 2.3 mph - N/A   Mostly Cloudy
8:58 AM 73.6 °F - 65.3 °F 75% 30.07 in 10.0 mi NE 1.2 mph - N/A   Clear
9:07 AM 73.4 °F - 66.2 °F 78% 30.06 in 10.0 mi ENE 1.2 mph - N/A   Light Drizzle
9:26 AM 73.4 °F - 64.4 °F 73% 30.06 in 10.0 mi Calm Calm - N/A   Clear
9:58 AM 76.1 °F - 64.6 °F 67% 30.06 in 10.0 mi South 3.5 mph - 0.00 in   Partly Cloudy
10:55 AM 78.1 °F - 65.7 °F 65% 30.08 in 10.0 mi West 5.8 mph - N/A   Scattered Clouds
10:59 AM - - - N/A% - - WSW 4.6 mph - N/A   Unknown
11:58 AM 80.1 °F 81.8 °F 64.8 °F 59% 30.08 in 10.0 mi SW 6.9 mph - N/A   Scattered Clouds
12:55 PM 80.6 °F 82.7 °F 66.2 °F 61% 30.08 in 10.0 mi SW 8.1 mph - N/A   Scattered Clouds
1:55 PM 80.6 °F 82.7 °F 66.2 °F 61% 30.07 in 10.0 mi SSW 9.2 mph - N/A   Scattered Clouds
2:55 PM 82.8 °F 84.9 °F 66.2 °F 57% 30.06 in 10.0 mi SW 12.7 mph - N/A   Scattered Clouds
3:55 PM 81.3 °F 83.2 °F 65.1 °F 58% 30.06 in 10.0 mi WSW 9.2 mph - N/A   Partly Cloudy
4:55 PM 82.4 °F 83.9 °F 64.4 °F 54% 30.04 in 10.0 mi SSW 6.9 mph - N/A   Clear
5:55 PM 82.2 °F 83.7 °F 64.0 °F 54% 30.04 in 10.0 mi South 4.6 mph - N/A   Clear
6:55 PM 80.8 °F 82.1 °F 63.3 °F 55% 30.05 in 10.0 mi SSW 6.9 mph - N/A   Clear
7:55 PM 79.0 °F - 65.1 °F 62% 30.05 in 10.0 mi SW 5.8 mph - N/A   Clear
8:55 PM 78.1 °F - 66.9 °F 68% 30.06 in 10.0 mi SSW 3.5 mph - N/A   Clear
9:55 PM 77.0 °F - 67.3 °F 72% 30.06 in 10.0 mi SSW 3.5 mph - N/A   Clear
10:55 PM 75.7 °F - 66.9 °F 74% 30.07 in 10.0 mi Calm Calm - N/A   Clear